Weather Roundup
Issued by NWS

Home | Current Version | Previous Version | Graphics & Text | Print | Product List | Glossary Off
Versions: 1 2 3 4 5 6 7 8 9 10 11 12 13 14 15 16 17 18 19 20 21 22 23 24 25 26 27 28 29 30 31 32 33 34 35 36 37 38 39 40 41 42 43 44 45 46 47 48 49 50

000
NZUS93 KARX 252210
HRRWXR

CURRENT HOURLY OBSERVATIONS ACROSS
MUCH OF THE UPPER MISSISSIPPI VALLEY
NATIONAL WEATHER SERVICE LA CROSSE WI
500 PM CDT SAT OCT 25 2014


...SOUTHEAST MINNESOTA...


CITY           SKY/WX    TMP DP  RH WIND       PRES   REMARKS
ROCHESTER      SUNNY     62  28  27 NW12G22   30.05R
ROCHESTER/MAYO FAIR      62  24  23 W18G24    30.03S
WINONA         SUNNY     61  30  31 NW12G18   30.01S
AUSTIN         SUNNY     63  30  29 NW10      30.06R
ALBERT LEA     SUNNY     63  27  25 NW12G17   30.07S
DODGE CENTER   SUNNY     61  27  27 NW16G22   30.05S
PRESTON        SUNNY     60  29  30 NW15G24   30.04S
OWATONNA       SUNNY     63  25  23 W15       30.06S
FARIBAULT      SUNNY     63  28  27 W14G21    30.05F
$$

...ELSEWHERE IN MINNESOTA...


CITY           SKY/WX    TMP DP  RH WIND       PRES   REMARKS
MINNEAPOLIS    SUNNY     61  24  24 NW17      30.03S
INTNL FALLS    CLEAR     52  28  39 W18G30    29.93R
DULUTH         CLEAR     56  25  30 W20G29    29.93R
RED WING       SUNNY     63  25  23 NW14      30.01R
REDWOOD FALLS  SUNNY     64  28  25 NW13      30.08F
MANKATO        SUNNY     63  28  27 NW14      30.07S
WORTHINGTON    SUNNY     63  28  27 N7        30.10S
FAIRMONT       SUNNY     66  -8   5 NW15      30.08S
$$

...SOUTHWEST WISCONSIN...


CITY           SKY/WX    TMP DP  RH WIND       PRES   REMARKS
LA CROSSE      SUNNY     65  30  27 NW14      29.98S
PRAIRIE DU CHI SUNNY     66  24  20 W14       30.00R
BOSCOBEL       SUNNY     67  24  19 W12G21    29.99S
LONE ROCK      CLEAR     69  24  18 NW20G28   29.96S
PLATTEVILLE    SUNNY     66  31  27 W10G18    30.00R
FORT MC COY    CLEAR     62  23  22 W13G22    29.98S
VIROQUA        FAIR      62  26  25 NW13      29.99S
WIS DELLS      CLEAR     63  25  24 NW15G22   29.94S
$$

...ELSEWHERE IN WISCONSIN...


CITY           SKY/WX    TMP DP  RH WIND       PRES   REMARKS
MILWAUKEE      PTCLDY    68  25  19 W17G26    29.88S
MADISON        CLEAR     66  24  20 NW12G21   29.93S
GREEN BAY      CLEAR     63  28  26 W18G25    29.83R
EAU CLAIRE     CLEAR     61  25  25 W17G24    29.97S
BLACK RVR FLS  FAIR      63  22  20 W16       29.96S
MEDFORD        CLEAR     57  27  31 W12G24    29.91S
WAUSAU         CLEAR     60  25  26 W24G36    29.88R
WIS RAPIDS     CLEAR     61  28  28 W15G25    29.92F
MARSHFIELD     CLEAR     59  27  29 W16G25    29.92S
RICE LAKE      CLEAR     59  22  24 W17G25    29.99S
$$

...NORTHEAST IOWA...


CITY           SKY/WX    TMP DP  RH WIND       PRES   REMARKS
DECORAH        SUNNY     63  27  25 NW14G20   30.02S
MASON CITY     SUNNY     63  32  31 NW14      30.08S
CHARLES CITY   SUNNY     64  30  27 NW13      30.06S
OELWEIN        SUNNY     66  32  28 NW14      30.04F
$$

...ELSEWHERE IN IOWA...


CITY           SKY/WX    TMP DP  RH WIND       PRES   REMARKS
DES MOINES     SUNNY     71  37  28 N5        30.06F
IOWA CITY      SUNNY     68  37  32 NW10      30.05S
FORT DODGE     SUNNY     66  36  32 N5        30.09S
$$

...NORTHERN ILLINOIS...


CITY           SKY/WX    TMP DP  RH WIND       PRES   REMARKS
CHICAGO-OHARE  PTCLDY    69  28  21 W18       29.91R
CHICAGO-MIDWAY PTCLDY    72  29  20 W16G23    29.91S
MOLINE         SUNNY     70  35  27 NW9       29.99F
ROCKFORD       CLEAR     68  29  23 NW16G26   29.96S
PEORIA         SUNNY     75  37  25 NW7       29.99S
$$

NOTE: "FAIR" INDICATES FEW OR NO CLOUDS BELOW 12,000 FEET WITH NO
SIGNIFICANT WEATHER AND/OR OBSTRUCTIONS TO VISIBILITY. WIND
SPEEDS ARE IN MILES-PER-HOUR.



USA.gov is the U.S. government's official web portal to all federal, state and local government web resources and services.